Year,Month,Day,Hour,Minute,Value (Times are PST for temperature in C)
2009,10,22,00,00,12.40
2009,10,22,00,01,12.50
2009,10,22,00,02,12.50
2009,10,22,00,03,12.50
2009,10,22,00,04,12.50
2009,10,22,00,05,12.50
2009,10,22,00,06,12.50
2009,10,22,00,07,12.40
2009,10,22,00,08,12.50
2009,10,22,00,09,12.40
2009,10,22,00,10,12.50
2009,10,22,00,11,12.50
2009,10,22,00,12,12.50
2009,10,22,00,13,12.50
2009,10,22,00,14,12.50
2009,10,22,00,15,12.50
2009,10,22,00,16,12.60
2009,10,22,00,17,12.60
2009,10,22,00,18,12.60
2009,10,22,00,19,12.60
2009,10,22,00,20,12.60
2009,10,22,00,21,12.60
2009,10,22,00,22,12.60
2009,10,22,00,23,12.60
2009,10,22,00,24,12.60
2009,10,22,00,25,12.60
2009,10,22,00,26,12.50
2009,10,22,00,27,12.50
2009,10,22,00,28,12.40
2009,10,22,00,29,12.40
2009,10,22,00,30,12.40
2009,10,22,00,31,12.30
2009,10,22,00,32,12.30
2009,10,22,00,33,12.30
2009,10,22,00,34,12.30
2009,10,22,00,35,12.30
2009,10,22,00,36,12.20
2009,10,22,00,37,12.20
2009,10,22,00,38,12.20
2009,10,22,00,39,12.30
2009,10,22,00,40,12.30
2009,10,22,00,41,12.30
2009,10,22,00,42,12.30
2009,10,22,00,43,12.40
2009,10,22,00,44,12.40
2009,10,22,00,45,12.40
2009,10,22,00,46,12.50
2009,10,22,00,47,12.50
2009,10,22,00,48,12.60
2009,10,22,00,49,12.60
2009,10,22,00,50,12.60
2009,10,22,00,51,12.60
2009,10,22,00,52,12.60
2009,10,22,00,53,12.60
2009,10,22,00,54,12.60
2009,10,22,00,55,12.60
2009,10,22,00,56,12.60
2009,10,22,00,57,12.60
2009,10,22,00,58,12.60
2009,10,22,00,59,12.50
2009,10,22,01,00,12.50
2009,10,22,01,01,12.50
2009,10,22,01,02,12.50
2009,10,22,01,03,12.50
2009,10,22,01,04,12.50
2009,10,22,01,05,12.50
2009,10,22,01,06,12.50
2009,10,22,01,07,12.50
2009,10,22,01,08,12.50
2009,10,22,01,09,12.50
2009,10,22,01,10,12.50
2009,10,22,01,11,12.50
2009,10,22,01,12,12.40
2009,10,22,01,13,12.40
2009,10,22,01,14,12.40
2009,10,22,01,15,12.40
2009,10,22,01,16,12.30
2009,10,22,01,17,12.30
2009,10,22,01,18,12.30
2009,10,22,01,19,12.30
2009,10,22,01,20,12.30
2009,10,22,01,21,12.30
2009,10,22,01,22,12.30
2009,10,22,01,23,12.30
2009,10,22,01,24,12.30
2009,10,22,01,25,12.30
2009,10,22,01,26,12.40
2009,10,22,01,27,12.40
2009,10,22,01,28,12.40
2009,10,22,01,29,12.40
2009,10,22,01,30,12.40
2009,10,22,01,31,12.30
2009,10,22,01,32,12.30
2009,10,22,01,33,12.30
2009,10,22,01,34,12.30
2009,10,22,01,35,12.30
2009,10,22,01,36,12.30
2009,10,22,01,37,12.20
2009,10,22,01,38,12.20
2009,10,22,01,39,12.10
2009,10,22,01,40,12.00
2009,10,22,01,41,12.00
2009,10,22,01,42,11.90
2009,10,22,01,43,11.90
2009,10,22,01,44,11.90
2009,10,22,01,45,11.80
2009,10,22,01,46,11.80
2009,10,22,01,47,11.70
2009,10,22,01,48,11.70
2009,10,22,01,49,11.60
2009,10,22,01,50,11.60
2009,10,22,01,51,11.60
2009,10,22,01,52,11.50
2009,10,22,01,53,11.50
2009,10,22,01,54,11.50
2009,10,22,01,55,11.50
2009,10,22,01,56,11.50
2009,10,22,01,57,11.40
2009,10,22,01,58,11.40
2009,10,22,01,59,11.40
2009,10,22,02,00,11.30
2009,10,22,02,01,11.30
2009,10,22,02,02,11.30
2009,10,22,02,03,11.20
2009,10,22,02,04,11.10
2009,10,22,02,05,11.10
2009,10,22,02,06,11.00
2009,10,22,02,07,10.90
2009,10,22,02,08,10.90
2009,10,22,02,09,10.80
2009,10,22,02,10,10.80
2009,10,22,02,11,10.70
2009,10,22,02,12,10.60
2009,10,22,02,13,10.60
2009,10,22,02,14,10.50
2009,10,22,02,15,10.40
2009,10,22,02,16,10.40
2009,10,22,02,17,10.30
2009,10,22,02,18,10.30
2009,10,22,02,19,10.20
2009,10,22,02,20,10.20
2009,10,22,02,21,10.20
2009,10,22,02,22,10.10
2009,10,22,02,23,10.10
2009,10,22,02,24,10.10
2009,10,22,02,25,10.00
2009,10,22,02,26,10.00
2009,10,22,02,27,9.90
2009,10,22,02,28,9.90
2009,10,22,02,29,9.80
2009,10,22,02,30,9.80
2009,10,22,02,31,9.70
2009,10,22,02,32,9.70
2009,10,22,02,33,9.70
2009,10,22,02,34,9.60
2009,10,22,02,35,9.60
2009,10,22,02,36,9.50
2009,10,22,02,37,9.40
2009,10,22,02,38,9.40
2009,10,22,02,39,9.30
2009,10,22,02,40,9.30
2009,10,22,02,41,9.30
2009,10,22,02,42,9.20
2009,10,22,02,43,9.20
2009,10,22,02,44,9.10
2009,10,22,02,45,9.10
2009,10,22,02,46,9.00
2009,10,22,02,47,9.00
2009,10,22,02,48,8.90
2009,10,22,02,49,8.90
2009,10,22,02,50,8.90
2009,10,22,02,51,8.90
2009,10,22,02,52,8.90
2009,10,22,02,53,8.90
2009,10,22,02,54,8.90
2009,10,22,02,55,8.90
2009,10,22,02,56,8.80
2009,10,22,02,57,8.80
2009,10,22,02,58,8.80
2009,10,22,02,59,8.80
2009,10,22,03,00,8.80
2009,10,22,03,01,8.80
2009,10,22,03,02,8.80
2009,10,22,03,03,8.70
2009,10,22,03,04,8.70
2009,10,22,03,05,8.70
2009,10,22,03,06,8.70
2009,10,22,03,07,8.60
2009,10,22,03,08,8.60
2009,10,22,03,09,8.60
2009,10,22,03,10,8.60
2009,10,22,03,11,8.50
2009,10,22,03,12,8.50
2009,10,22,03,13,8.50
2009,10,22,03,14,8.40
2009,10,22,03,15,8.40
2009,10,22,03,16,8.40
2009,10,22,03,17,8.40
2009,10,22,03,18,8.40
2009,10,22,03,19,8.40
2009,10,22,03,20,8.30
2009,10,22,03,21,8.30
2009,10,22,03,22,8.30
2009,10,22,03,23,8.30
2009,10,22,03,24,8.30
2009,10,22,03,25,8.30
2009,10,22,03,26,8.30
2009,10,22,03,27,8.30
2009,10,22,03,28,8.30
2009,10,22,03,29,8.30
2009,10,22,03,30,8.30
2009,10,22,03,31,8.30
2009,10,22,03,32,8.30
2009,10,22,03,33,8.20
2009,10,22,03,34,8.20
2009,10,22,03,35,8.20
2009,10,22,03,36,8.20
2009,10,22,03,37,8.20
2009,10,22,03,38,8.20
2009,10,22,03,39,8.20
2009,10,22,03,40,8.10
2009,10,22,03,41,8.10
2009,10,22,03,42,8.10
2009,10,22,03,43,8.10
2009,10,22,03,44,8.00
2009,10,22,03,45,8.00
2009,10,22,03,46,7.90
2009,10,22,03,47,7.90
2009,10,22,03,48,7.90
2009,10,22,03,49,7.90
2009,10,22,03,50,7.80
2009,10,22,03,51,7.80
2009,10,22,03,52,7.80
2009,10,22,03,53,7.70
2009,10,22,03,54,7.70
2009,10,22,03,55,7.70
2009,10,22,03,56,7.70
2009,10,22,03,57,7.70
2009,10,22,03,58,7.60
2009,10,22,03,59,7.60
2009,10,22,04,00,7.60
2009,10,22,04,01,7.60
2009,10,22,04,02,7.60
2009,10,22,04,03,7.60
2009,10,22,04,04,7.50
2009,10,22,04,05,7.50
2009,10,22,04,06,7.50
2009,10,22,04,07,7.40
2009,10,22,04,08,7.40
2009,10,22,04,09,7.40
2009,10,22,04,10,7.40
2009,10,22,04,11,7.40
2009,10,22,04,12,7.40
2009,10,22,04,13,7.40
2009,10,22,04,14,7.40
2009,10,22,04,15,7.30
2009,10,22,04,16,7.30
2009,10,22,04,17,7.30
2009,10,22,04,18,7.30
2009,10,22,04,19,7.30
2009,10,22,04,20,7.30
2009,10,22,04,21,7.30
2009,10,22,04,22,7.30
2009,10,22,04,23,7.30
2009,10,22,04,24,7.30
2009,10,22,04,25,7.30
2009,10,22,04,26,7.30
2009,10,22,04,27,7.20
2009,10,22,04,28,7.20
2009,10,22,04,29,7.20
2009,10,22,04,30,7.20
2009,10,22,04,31,7.20
2009,10,22,04,32,7.10
2009,10,22,04,33,7.10
2009,10,22,04,34,7.10
2009,10,22,04,35,7.10
2009,10,22,04,36,7.10
2009,10,22,04,37,7.10
2009,10,22,04,38,7.10
2009,10,22,04,39,7.10
2009,10,22,04,40,7.10
2009,10,22,04,41,7.10
2009,10,22,04,42,7.10
2009,10,22,04,43,7.10
2009,10,22,04,44,7.10
2009,10,22,04,45,7.10
2009,10,22,04,46,7.10
2009,10,22,04,47,7.10
2009,10,22,04,48,7.10
2009,10,22,04,49,7.10
2009,10,22,04,50,7.10
2009,10,22,04,51,7.10
2009,10,22,04,52,7.00
2009,10,22,04,53,7.00
2009,10,22,04,54,7.00
2009,10,22,04,55,7.00
2009,10,22,04,56,7.00
2009,10,22,04,57,6.90
2009,10,22,04,58,6.90
2009,10,22,04,59,6.90
2009,10,22,05,00,6.90
2009,10,22,05,01,6.80
2009,10,22,05,02,6.80
2009,10,22,05,03,6.80
2009,10,22,05,04,6.80
2009,10,22,05,05,6.80
2009,10,22,05,06,6.80
2009,10,22,05,07,6.80
2009,10,22,05,08,6.80
2009,10,22,05,09,6.80
2009,10,22,05,10,6.80
2009,10,22,05,11,6.80
2009,10,22,05,12,6.80
2009,10,22,05,13,6.80
2009,10,22,05,14,6.80
2009,10,22,05,15,6.80
2009,10,22,05,16,6.80
2009,10,22,05,17,6.80
2009,10,22,05,18,6.80
2009,10,22,05,19,6.80
2009,10,22,05,20,6.80
2009,10,22,05,21,6.80
2009,10,22,05,22,6.90
2009,10,22,05,23,6.90
2009,10,22,05,24,6.90
2009,10,22,05,25,6.90
2009,10,22,05,26,6.90
2009,10,22,05,27,6.90
2009,10,22,05,28,6.90
2009,10,22,05,29,6.90
2009,10,22,05,30,6.90
2009,10,22,05,31,6.90
2009,10,22,05,32,6.90
2009,10,22,05,33,6.90
2009,10,22,05,34,6.90
2009,10,22,05,35,6.90
2009,10,22,05,36,6.90
2009,10,22,05,37,6.90
2009,10,22,05,38,6.90
2009,10,22,05,39,6.90
2009,10,22,05,40,6.90
2009,10,22,05,41,7.00
2009,10,22,05,42,7.00
2009,10,22,05,43,7.10
2009,10,22,05,44,7.10
2009,10,22,05,45,7.10
2009,10,22,05,46,7.10
2009,10,22,05,47,7.10
2009,10,22,05,48,7.10
2009,10,22,05,49,7.20
2009,10,22,05,50,7.20
2009,10,22,05,51,7.20
2009,10,22,05,52,7.20
2009,10,22,05,53,7.20
2009,10,22,05,54,7.20
2009,10,22,05,55,7.20
2009,10,22,05,56,7.20
2009,10,22,05,57,7.20
2009,10,22,05,58,7.20
2009,10,22,05,59,7.20
2009,10,22,06,00,7.20
2009,10,22,06,01,7.20
2009,10,22,06,02,7.20
2009,10,22,06,03,7.20
2009,10,22,06,04,7.20
2009,10,22,06,05,7.20
2009,10,22,06,06,7.20
2009,10,22,06,07,7.20
2009,10,22,06,08,7.20
2009,10,22,06,09,7.20
2009,10,22,06,10,7.20
2009,10,22,06,11,7.20
2009,10,22,06,12,7.20
2009,10,22,06,13,7.20
2009,10,22,06,14,7.20
2009,10,22,06,15,7.20
2009,10,22,06,16,7.20
2009,10,22,06,17,7.20
2009,10,22,06,18,7.20
2009,10,22,06,19,7.20
2009,10,22,06,20,7.20
2009,10,22,06,21,7.20
2009,10,22,06,22,7.20
2009,10,22,06,23,7.20
2009,10,22,06,24,7.20
2009,10,22,06,25,7.20
2009,10,22,06,26,7.20
2009,10,22,06,27,7.20
2009,10,22,06,28,7.20
2009,10,22,06,29,7.20
2009,10,22,06,30,7.20
2009,10,22,06,31,7.20
2009,10,22,06,32,7.20
2009,10,22,06,33,7.10
2009,10,22,06,34,7.10
2009,10,22,06,35,7.10
2009,10,22,06,36,7.10
2009,10,22,06,37,7.00
2009,10,22,06,38,7.00
2009,10,22,06,39,7.00
2009,10,22,06,40,7.00
2009,10,22,06,41,7.10
2009,10,22,06,42,7.10
2009,10,22,06,43,7.10
2009,10,22,06,44,7.10
2009,10,22,06,45,7.20
2009,10,22,06,46,7.20
2009,10,22,06,47,7.20
2009,10,22,06,48,7.20
2009,10,22,06,49,7.20
2009,10,22,06,50,7.20
2009,10,22,06,51,7.20
2009,10,22,06,52,7.20
2009,10,22,06,53,7.20
2009,10,22,06,54,7.20
2009,10,22,06,55,7.20
2009,10,22,06,56,7.20
2009,10,22,06,57,7.20
2009,10,22,06,58,7.20
2009,10,22,06,59,7.20
2009,10,22,07,00,7.20
2009,10,22,07,01,7.20
2009,10,22,07,02,7.20
2009,10,22,07,03,7.20
2009,10,22,07,04,7.20
2009,10,22,07,05,7.20
2009,10,22,07,06,7.20
2009,10,22,07,07,7.20
2009,10,22,07,08,7.20
2009,10,22,07,09,7.20
2009,10,22,07,10,7.20
2009,10,22,07,11,7.20
2009,10,22,07,12,7.20
2009,10,22,07,13,7.20
2009,10,22,07,14,7.20
2009,10,22,07,15,7.20
2009,10,22,07,16,7.20
2009,10,22,07,17,7.20
2009,10,22,07,18,7.20
2009,10,22,07,19,7.20
2009,10,22,07,20,7.20
2009,10,22,07,21,7.20
2009,10,22,07,22,7.20
2009,10,22,07,23,7.20
2009,10,22,07,24,7.20
2009,10,22,07,25,7.20
2009,10,22,07,26,7.20
2009,10,22,07,27,7.20
2009,10,22,07,28,7.20
2009,10,22,07,29,7.20
2009,10,22,07,30,7.20
2009,10,22,07,31,7.20
2009,10,22,07,32,7.20
2009,10,22,07,33,7.20
2009,10,22,07,34,7.20
2009,10,22,07,35,7.20
2009,10,22,07,36,7.20
2009,10,22,07,37,7.20
2009,10,22,07,38,7.20
2009,10,22,07,39,7.20
2009,10,22,07,40,7.20
2009,10,22,07,41,7.20
2009,10,22,07,42,7.20
2009,10,22,07,43,7.20
2009,10,22,07,44,7.20
2009,10,22,07,45,7.20
2009,10,22,07,46,7.20
2009,10,22,07,47,7.20
2009,10,22,07,48,7.20
2009,10,22,07,49,7.20
2009,10,22,07,50,7.20
2009,10,22,07,51,7.20
2009,10,22,07,52,7.20
2009,10,22,07,53,7.20
2009,10,22,07,54,7.20
2009,10,22,07,55,7.20
2009,10,22,07,56,7.20
2009,10,22,07,57,7.20
2009,10,22,07,58,7.20
2009,10,22,07,59,7.20
2009,10,22,08,00,7.20
2009,10,22,08,01,7.20
2009,10,22,08,02,7.20
2009,10,22,08,03,7.20
2009,10,22,08,04,7.20
2009,10,22,08,05,7.20
2009,10,22,08,06,7.20
2009,10,22,08,07,7.20
2009,10,22,08,08,7.20
2009,10,22,08,09,7.20
2009,10,22,08,10,7.20
2009,10,22,08,11,7.20
2009,10,22,08,12,7.20
2009,10,22,08,13,7.20
2009,10,22,08,14,7.20
2009,10,22,08,15,7.20
2009,10,22,08,16,7.20
2009,10,22,08,17,7.20
2009,10,22,08,18,7.10
2009,10,22,08,19,7.10
2009,10,22,08,20,7.10
2009,10,22,08,21,7.20
2009,10,22,08,22,7.20
2009,10,22,08,23,7.20
2009,10,22,08,24,7.20
2009,10,22,08,25,7.20
2009,10,22,08,26,7.20
2009,10,22,08,27,7.20
2009,10,22,08,28,7.20
2009,10,22,08,29,7.20
2009,10,22,08,30,7.30
2009,10,22,08,31,7.30
2009,10,22,08,32,7.30
2009,10,22,08,33,7.30
2009,10,22,08,34,7.30
2009,10,22,08,35,7.30
2009,10,22,08,36,7.30
2009,10,22,08,37,7.40
2009,10,22,08,38,7.40
2009,10,22,08,39,7.40
2009,10,22,08,40,7.40
2009,10,22,08,41,7.40
2009,10,22,08,42,7.50
2009,10,22,08,43,7.50
2009,10,22,08,44,7.50
2009,10,22,08,45,7.50
2009,10,22,08,46,7.50
2009,10,22,08,47,7.50
2009,10,22,08,48,7.50
2009,10,22,08,49,7.50
2009,10,22,08,50,7.60
2009,10,22,08,51,7.60
2009,10,22,08,52,7.60
2009,10,22,08,53,7.60
2009,10,22,08,54,7.60
2009,10,22,08,55,7.60
2009,10,22,08,56,7.60
2009,10,22,08,57,7.60
2009,10,22,08,58,7.60
2009,10,22,08,59,7.70
2009,10,22,09,00,7.70
2009,10,22,09,01,7.70
2009,10,22,09,02,7.80
2009,10,22,09,03,7.80
2009,10,22,09,04,7.80
2009,10,22,09,05,7.80
2009,10,22,09,06,7.80
2009,10,22,09,07,7.90
2009,10,22,09,08,7.90
2009,10,22,09,09,7.90
2009,10,22,09,10,7.90
2009,10,22,09,11,7.90
2009,10,22,09,12,8.00
2009,10,22,09,13,8.00
2009,10,22,09,14,8.00
2009,10,22,09,15,8.00
2009,10,22,09,16,8.10
2009,10,22,09,17,8.10
2009,10,22,09,18,8.10
2009,10,22,09,19,8.10
2009,10,22,09,20,8.20
2009,10,22,09,21,8.20
2009,10,22,09,22,8.20
2009,10,22,09,23,8.20
2009,10,22,09,24,8.30
2009,10,22,09,25,8.30
2009,10,22,09,26,8.30
2009,10,22,09,27,8.30
2009,10,22,09,28,8.40
2009,10,22,09,29,8.40
2009,10,22,09,30,8.40
2009,10,22,09,31,8.40
2009,10,22,09,32,8.50
2009,10,22,09,33,8.50
2009,10,22,09,34,8.60
2009,10,22,09,35,8.60
2009,10,22,09,36,8.60
2009,10,22,09,37,8.70
2009,10,22,09,38,8.70
2009,10,22,09,39,8.70
2009,10,22,09,40,8.70
2009,10,22,09,41,8.70
2009,10,22,09,42,8.80
2009,10,22,09,43,8.80
2009,10,22,09,44,8.80
2009,10,22,09,45,8.90
2009,10,22,09,46,8.90
2009,10,22,09,47,8.90
2009,10,22,09,48,8.90
2009,10,22,09,49,9.00
2009,10,22,09,50,9.00
2009,10,22,09,51,9.00
2009,10,22,09,52,9.10
2009,10,22,09,53,9.10
2009,10,22,09,54,9.10
2009,10,22,09,55,9.10
2009,10,22,09,56,9.10
2009,10,22,09,57,9.20
2009,10,22,09,58,9.20
2009,10,22,09,59,9.20
2009,10,22,10,00,9.20
2009,10,22,10,01,9.20
2009,10,22,10,02,9.30
2009,10,22,10,03,9.30
2009,10,22,10,04,9.30
2009,10,22,10,05,9.30
2009,10,22,10,06,9.30
2009,10,22,10,07,9.30
2009,10,22,10,08,9.40
2009,10,22,10,09,9.40
2009,10,22,10,10,9.40
2009,10,22,10,11,9.40
2009,10,22,10,12,9.40
2009,10,22,10,13,9.40
2009,10,22,10,14,9.40
2009,10,22,10,15,9.50
2009,10,22,10,16,9.50
2009,10,22,10,17,9.50
2009,10,22,10,18,9.60
2009,10,22,10,19,9.60
2009,10,22,10,20,9.60
2009,10,22,10,21,9.60
2009,10,22,10,22,9.70
2009,10,22,10,23,9.70
2009,10,22,10,24,9.70
2009,10,22,10,25,9.70
2009,10,22,10,26,9.80
2009,10,22,10,27,9.80
2009,10,22,10,28,9.80
2009,10,22,10,29,9.80
2009,10,22,10,30,9.90
2009,10,22,10,31,9.90
2009,10,22,10,32,9.90
2009,10,22,10,33,9.90
2009,10,22,10,34,9.90
2009,10,22,10,35,10.00
2009,10,22,10,36,9.90
2009,10,22,10,37,10.00
2009,10,22,10,38,10.00
2009,10,22,10,39,10.00
2009,10,22,10,40,10.10
2009,10,22,10,41,10.10
2009,10,22,10,42,10.10
2009,10,22,10,43,10.10
2009,10,22,10,44,10.10
2009,10,22,10,45,10.10
2009,10,22,10,46,10.20
2009,10,22,10,47,10.20
2009,10,22,10,48,10.20
2009,10,22,10,49,10.20
2009,10,22,10,50,10.20
2009,10,22,10,51,10.20
2009,10,22,10,52,10.20
2009,10,22,10,53,10.20
2009,10,22,10,54,10.30
2009,10,22,10,55,10.30
2009,10,22,10,56,10.30
2009,10,22,10,57,10.30
2009,10,22,10,58,10.30
2009,10,22,10,59,10.30
2009,10,22,11,00,10.30
2009,10,22,11,01,10.30
2009,10,22,11,02,10.30
2009,10,22,11,03,10.40
2009,10,22,11,04,10.40
2009,10,22,11,05,10.40
2009,10,22,11,06,10.40
2009,10,22,11,07,10.40
2009,10,22,11,08,10.40
2009,10,22,11,09,10.40
2009,10,22,11,10,10.40
2009,10,22,11,11,10.40
2009,10,22,11,12,10.50
2009,10,22,11,13,10.50
2009,10,22,11,14,10.50
2009,10,22,11,15,10.50
2009,10,22,11,16,10.50
2009,10,22,11,17,10.60
2009,10,22,11,18,10.60
2009,10,22,11,19,10.60
2009,10,22,11,20,10.60
2009,10,22,11,21,10.60
2009,10,22,11,22,10.60
2009,10,22,11,23,10.70
2009,10,22,11,24,10.70
2009,10,22,11,25,10.70
2009,10,22,11,26,10.70
2009,10,22,11,27,10.70
2009,10,22,11,28,10.70
2009,10,22,11,29,10.80
2009,10,22,11,30,10.80
2009,10,22,11,31,10.80
2009,10,22,11,32,10.80
2009,10,22,11,33,10.80
2009,10,22,11,34,10.80
2009,10,22,11,35,10.80
2009,10,22,11,36,10.90
2009,10,22,11,37,10.90
2009,10,22,11,38,10.90
2009,10,22,11,39,10.90
2009,10,22,11,40,10.90
2009,10,22,11,41,10.90
2009,10,22,11,42,11.00
2009,10,22,11,43,11.00
2009,10,22,11,44,11.10
2009,10,22,11,45,11.10
2009,10,22,11,46,11.10
2009,10,22,11,47,11.10
2009,10,22,11,48,11.10
2009,10,22,11,49,11.20
2009,10,22,11,50,11.20
2009,10,22,11,51,11.20
2009,10,22,11,52,11.20
2009,10,22,11,53,11.20
2009,10,22,11,54,11.20
2009,10,22,11,55,11.20
2009,10,22,11,56,11.20
2009,10,22,11,57,11.30
2009,10,22,11,58,11.30
2009,10,22,11,59,11.30
2009,10,22,12,00,11.30
2009,10,22,12,01,11.30
2009,10,22,12,02,11.30
2009,10,22,12,03,11.30
2009,10,22,12,04,11.30
2009,10,22,12,05,11.30
2009,10,22,12,06,11.30
2009,10,22,12,07,11.30
2009,10,22,12,08,11.30
2009,10,22,12,09,11.30
2009,10,22,12,10,11.30
2009,10,22,12,11,11.30
2009,10,22,12,12,11.30
2009,10,22,12,13,11.30
2009,10,22,12,14,11.30
2009,10,22,12,15,11.30
2009,10,22,12,16,11.30
2009,10,22,12,17,11.30
2009,10,22,12,18,11.30
2009,10,22,12,19,11.30
2009,10,22,12,20,11.30
2009,10,22,12,21,11.30
2009,10,22,12,22,11.30
2009,10,22,12,23,11.30
2009,10,22,12,24,11.30
2009,10,22,12,25,11.30
2009,10,22,12,26,11.30
2009,10,22,12,27,11.30
2009,10,22,12,28,11.30
2009,10,22,12,29,11.40
2009,10,22,12,30,11.40
2009,10,22,12,31,11.40
2009,10,22,12,32,11.40
2009,10,22,12,33,11.40
2009,10,22,12,34,11.40
2009,10,22,12,35,11.40
2009,10,22,12,36,11.40
2009,10,22,12,37,11.40
2009,10,22,12,38,11.40
2009,10,22,12,39,11.40
2009,10,22,12,40,11.40
2009,10,22,12,41,11.40
2009,10,22,12,42,11.40
2009,10,22,12,43,11.40
2009,10,22,12,44,11.40
2009,10,22,12,45,11.40
2009,10,22,12,46,11.40
2009,10,22,12,47,11.30
2009,10,22,12,48,11.30
2009,10,22,12,49,11.30
2009,10,22,12,50,11.30
2009,10,22,12,51,11.30
2009,10,22,12,52,11.30
2009,10,22,12,53,11.30
2009,10,22,12,54,11.30
2009,10,22,12,55,11.30
2009,10,22,12,56,11.30
2009,10,22,12,57,11.30
2009,10,22,12,58,11.30
2009,10,22,12,59,11.30
2009,10,22,13,00,11.30
2009,10,22,13,01,11.30
2009,10,22,13,02,11.30
2009,10,22,13,03,11.30
2009,10,22,13,04,11.30
2009,10,22,13,05,11.30
2009,10,22,13,06,11.30
2009,10,22,13,07,11.30
2009,10,22,13,08,11.30
2009,10,22,13,09,11.30
2009,10,22,13,10,11.30
2009,10,22,13,11,11.30
2009,10,22,13,12,11.30
2009,10,22,13,13,11.30
2009,10,22,13,14,11.30
2009,10,22,13,15,11.30
2009,10,22,13,16,11.30
2009,10,22,13,17,11.30
2009,10,22,13,18,11.30
2009,10,22,13,19,11.30
2009,10,22,13,20,11.30
2009,10,22,13,21,11.30
2009,10,22,13,22,11.30
2009,10,22,13,23,11.30
2009,10,22,13,24,11.30
2009,10,22,13,25,11.30
2009,10,22,13,26,11.30
2009,10,22,13,27,11.30
2009,10,22,13,28,11.30
2009,10,22,13,29,11.40
2009,10,22,13,30,11.40
2009,10,22,13,31,11.40
2009,10,22,13,32,11.40
2009,10,22,13,33,11.40
2009,10,22,13,34,11.40
2009,10,22,13,35,11.40
2009,10,22,13,36,11.40
2009,10,22,13,37,11.40
2009,10,22,13,38,11.40
2009,10,22,13,39,11.50
2009,10,22,13,40,11.50
2009,10,22,13,41,11.50
2009,10,22,13,42,11.50
2009,10,22,13,43,11.50
2009,10,22,13,44,11.50
2009,10,22,13,45,11.50
2009,10,22,13,46,11.50
2009,10,22,13,47,11.60
2009,10,22,13,48,11.60
2009,10,22,13,49,11.60
2009,10,22,13,50,11.60
2009,10,22,13,51,11.60
2009,10,22,13,52,11.60
2009,10,22,13,53,11.60
2009,10,22,13,54,11.60
2009,10,22,13,55,11.60
2009,10,22,13,56,11.60
2009,10,22,13,57,11.60
2009,10,22,13,58,11.60
2009,10,22,13,59,11.60
2009,10,22,14,00,11.60
2009,10,22,14,01,11.60
2009,10,22,14,02,11.60
2009,10,22,14,03,11.60
2009,10,22,14,04,11.60
2009,10,22,14,05,11.60
2009,10,22,14,06,11.60
2009,10,22,14,07,11.60
2009,10,22,14,08,11.60
2009,10,22,14,09,11.60
2009,10,22,14,10,11.60
2009,10,22,14,11,11.60
2009,10,22,14,12,11.60
2009,10,22,14,13,11.60
2009,10,22,14,14,11.70
2009,10,22,14,15,11.70
2009,10,22,14,16,11.70
2009,10,22,14,17,11.70
2009,10,22,14,18,11.70
2009,10,22,14,19,11.70
2009,10,22,14,20,11.70
2009,10,22,14,21,11.70
2009,10,22,14,22,11.70
2009,10,22,14,23,11.70
2009,10,22,14,24,11.80
2009,10,22,14,25,11.80
2009,10,22,14,26,11.80
2009,10,22,14,27,11.80
2009,10,22,14,28,11.80
2009,10,22,14,29,11.80
2009,10,22,14,30,11.80
2009,10,22,14,31,11.80
2009,10,22,14,32,11.80
2009,10,22,14,33,11.90
2009,10,22,14,34,11.90
2009,10,22,14,35,11.90
2009,10,22,14,36,11.90
2009,10,22,14,37,11.90
2009,10,22,14,38,11.90
2009,10,22,14,39,11.90
2009,10,22,14,40,11.90
2009,10,22,14,41,11.90
2009,10,22,14,42,12.00
2009,10,22,14,43,12.00
2009,10,22,14,44,12.00
2009,10,22,14,45,12.00
2009,10,22,14,46,12.00
2009,10,22,14,47,12.00
2009,10,22,14,48,12.00
2009,10,22,14,49,12.00
2009,10,22,14,50,12.00
2009,10,22,14,51,12.00
2009,10,22,14,52,12.00
2009,10,22,14,53,12.00
2009,10,22,14,54,12.00
2009,10,22,14,55,12.10
2009,10,22,14,56,12.00
2009,10,22,14,57,12.10
2009,10,22,14,58,12.10
2009,10,22,14,59,12.10
2009,10,22,15,00,12.10
2009,10,22,15,01,12.10
2009,10,22,15,02,12.00
2009,10,22,15,03,12.00
2009,10,22,15,04,12.00
2009,10,22,15,05,12.00
2009,10,22,15,06,12.00
2009,10,22,15,07,12.00
2009,10,22,15,08,12.00
2009,10,22,15,09,12.00
2009,10,22,15,10,12.00
2009,10,22,15,11,12.00
2009,10,22,15,12,12.00
2009,10,22,15,13,11.90
2009,10,22,15,14,11.90
2009,10,22,15,15,11.90
2009,10,22,15,16,11.90
2009,10,22,15,17,11.90
2009,10,22,15,18,11.90
2009,10,22,15,19,11.90
2009,10,22,15,20,11.90
2009,10,22,15,21,11.90
2009,10,22,15,22,11.90
2009,10,22,15,23,11.90
2009,10,22,15,24,11.90
2009,10,22,15,25,11.90
2009,10,22,15,26,11.90
2009,10,22,15,27,11.90
2009,10,22,15,28,11.90
2009,10,22,15,29,11.90
2009,10,22,15,30,11.90
2009,10,22,15,31,11.90
2009,10,22,15,32,11.90
2009,10,22,15,33,11.90
2009,10,22,15,34,11.90
2009,10,22,15,35,11.90
2009,10,22,15,36,11.90
2009,10,22,15,37,11.90
2009,10,22,15,38,11.90
2009,10,22,15,39,11.90
2009,10,22,15,40,11.90
2009,10,22,15,41,11.90
2009,10,22,15,42,11.90
2009,10,22,15,43,11.90
2009,10,22,15,44,11.90
2009,10,22,15,45,11.90
2009,10,22,15,46,11.90
2009,10,22,15,47,11.90
2009,10,22,15,48,11.90
2009,10,22,15,49,11.90
2009,10,22,15,50,11.90
2009,10,22,15,51,11.90
2009,10,22,15,52,11.80
2009,10,22,15,53,11.80
2009,10,22,15,54,11.80
2009,10,22,15,55,11.80
2009,10,22,15,56,11.80
2009,10,22,15,57,11.80
2009,10,22,15,58,11.80
2009,10,22,15,59,11.80
2009,10,22,16,00,11.80
2009,10,22,16,01,11.80
2009,10,22,16,02,11.80
2009,10,22,16,03,11.80
2009,10,22,16,04,11.80
2009,10,22,16,05,11.80
2009,10,22,16,06,11.80
2009,10,22,16,07,11.80
2009,10,22,16,08,11.80
2009,10,22,16,09,11.80
2009,10,22,16,10,11.80
2009,10,22,16,11,11.80
2009,10,22,16,12,11.80
2009,10,22,16,13,11.80
2009,10,22,16,14,11.80
2009,10,22,16,15,11.80
2009,10,22,16,16,11.80
2009,10,22,16,17,11.80
2009,10,22,16,18,11.80
2009,10,22,16,19,11.80
2009,10,22,16,20,11.80
2009,10,22,16,21,11.70
2009,10,22,16,22,11.70
2009,10,22,16,23,11.70
2009,10,22,16,24,11.70
2009,10,22,16,25,11.70
2009,10,22,16,26,11.70
2009,10,22,16,27,11.70
2009,10,22,16,28,11.70
2009,10,22,16,29,11.70
2009,10,22,16,30,11.70
2009,10,22,16,31,11.60
2009,10,22,16,32,11.60
2009,10,22,16,33,11.60
2009,10,22,16,34,11.60
2009,10,22,16,35,11.60
2009,10,22,16,36,11.70
2009,10,22,16,37,11.60
2009,10,22,16,38,11.70
2009,10,22,16,39,11.70
2009,10,22,16,40,11.70
2009,10,22,16,41,11.70
2009,10,22,16,42,11.70
2009,10,22,16,43,11.70
2009,10,22,16,44,11.70
2009,10,22,16,45,11.70
2009,10,22,16,46,11.70
2009,10,22,16,47,11.70
2009,10,22,16,48,11.70
2009,10,22,16,49,11.70
2009,10,22,16,50,11.70
2009,10,22,16,51,11.60
2009,10,22,16,52,11.60
2009,10,22,16,53,11.60
2009,10,22,16,54,11.60
2009,10,22,16,55,11.60
2009,10,22,16,56,11.60
2009,10,22,16,57,11.60
2009,10,22,16,58,11.60
2009,10,22,16,59,11.60
2009,10,22,17,00,11.60
2009,10,22,17,01,11.60
2009,10,22,17,02,11.60
2009,10,22,17,03,11.60
2009,10,22,17,04,11.50
2009,10,22,17,05,11.50
2009,10,22,17,06,11.50
2009,10,22,17,07,11.50
2009,10,22,17,08,11.50
2009,10,22,17,09,11.40
2009,10,22,17,10,11.40
2009,10,22,17,11,11.40
2009,10,22,17,12,11.40
2009,10,22,17,13,11.40
2009,10,22,17,14,11.40
2009,10,22,17,15,11.30
2009,10,22,17,16,11.30
2009,10,22,17,17,11.30
2009,10,22,17,18,11.30
2009,10,22,17,19,11.30
2009,10,22,17,20,11.30
2009,10,22,17,21,11.30
2009,10,22,17,22,11.30
2009,10,22,17,23,11.30
2009,10,22,17,24,11.30
2009,10,22,17,25,11.30
2009,10,22,17,26,11.30
2009,10,22,17,27,11.20
2009,10,22,17,28,11.20
2009,10,22,17,29,11.20
2009,10,22,17,30,11.20
2009,10,22,17,31,11.20
2009,10,22,17,32,11.20
2009,10,22,17,33,11.20
2009,10,22,17,34,11.20
2009,10,22,17,35,11.20
2009,10,22,17,36,11.20
2009,10,22,17,37,11.20
2009,10,22,17,38,11.20
2009,10,22,17,39,11.20
2009,10,22,17,40,11.20